Weather Data

Pearl Creek Farm: 8878 N Farm Road 75, Walnut Grove MO 65770

<== Previous Day (Friday 04 Sep 2015) | Next Day (Sunday 06 Sep 2015) ==>

Summary Precipitation Data For Saturday 05 September 2015

ElementValueUnits
Precipitation0"
Notes(none)
SourcePearl Creek Farm

Summary Temperature Data For Saturday 05 September 2015

ElementValueUnits
High Temperature90 oF
Low Temperature72 oF
Average Temperature79 oF
High Humidity91 %
Low Humidity62 %
Average Humidity81 %
SourcePearl Creek Farm

Detail Temperature Data For Saturday 05 September 2015

Date / TimeTemp (F)RH (%)Dew Pt (F)Report Date / TimeSource
2015-09-05 00:00:00 73 89 69.4 2015-09-07 20:25:01 Pearl Creek Farm
2015-09-05 00:30:00 73 89 69.4 2015-09-07 20:25:01 Pearl Creek Farm
2015-09-05 01:00:00 72 89 68.6 2015-09-07 20:25:01 Pearl Creek Farm
2015-09-05 01:30:00 72 90 68.7 2015-09-07 20:25:01 Pearl Creek Farm
2015-09-05 02:00:00 72 90 68.9 2015-09-07 20:25:01 Pearl Creek Farm
2015-09-05 02:30:00 72 90 68.9 2015-09-07 20:25:01 Pearl Creek Farm
2015-09-05 03:00:00 72 90 68.9 2015-09-07 20:25:01 Pearl Creek Farm
2015-09-05 03:30:00 72 90 68.9 2015-09-07 20:25:01 Pearl Creek Farm
2015-09-05 04:00:00 72 90 68.9 2015-09-07 20:25:01 Pearl Creek Farm
2015-09-05 04:30:00 72 90 68.9 2015-09-07 20:25:01 Pearl Creek Farm
2015-09-05 05:00:00 72 91 69.1 2015-09-07 20:25:01 Pearl Creek Farm
2015-09-05 05:30:00 72 90 68.7 2015-09-07 20:25:01 Pearl Creek Farm
2015-09-05 06:00:00 72 90 68.7 2015-09-07 20:25:01 Pearl Creek Farm
2015-09-05 06:30:00 72 90 68.9 2015-09-07 20:25:01 Pearl Creek Farm
2015-09-05 07:00:00 72 90 68.9 2015-09-07 20:25:01 Pearl Creek Farm
2015-09-05 07:30:00 72 91 69.1 2015-09-07 20:25:01 Pearl Creek Farm
2015-09-05 08:00:00 73 91 70.1 2015-09-07 20:25:01 Pearl Creek Farm
2015-09-05 08:30:00 74 90 70.9 2015-09-07 20:25:01 Pearl Creek Farm
2015-09-05 09:00:00 76 89 72.5 2015-09-07 20:25:01 Pearl Creek Farm
2015-09-05 09:30:00 77 87 72.7 2015-09-07 20:25:01 Pearl Creek Farm
2015-09-05 10:00:00 79 84 73.6 2015-09-07 20:25:01 Pearl Creek Farm
2015-09-05 10:30:00 81 82 74.8 2015-09-07 20:25:01 Pearl Creek Farm
2015-09-05 11:00:00 83 79 75.8 2015-09-07 20:25:01 Pearl Creek Farm
2015-09-05 11:30:00 84 76 75.4 2015-09-07 20:25:01 Pearl Creek Farm
2015-09-05 12:00:00 86 76 77.3 2015-09-07 20:25:01 Pearl Creek Farm
2015-09-05 12:30:00 87 73 77.1 2015-09-07 20:25:01 Pearl Creek Farm
2015-09-05 13:00:00 87 70 75.8 2015-09-07 20:25:01 Pearl Creek Farm
2015-09-05 13:30:00 89 66 76.1 2015-09-07 20:25:01 Pearl Creek Farm
2015-09-05 14:00:00 89 66 75.9 2015-09-07 20:25:01 Pearl Creek Farm
2015-09-05 14:30:00 90 64 75.9 2015-09-07 20:25:01 Pearl Creek Farm
2015-09-05 15:00:00 90 62 75.2 2015-09-07 20:25:01 Pearl Creek Farm
2015-09-05 15:30:00 90 62 75.0 2015-09-07 20:25:01 Pearl Creek Farm
2015-09-05 16:00:00 90 64 75.9 2015-09-07 20:25:01 Pearl Creek Farm
2015-09-05 16:30:00 90 67 77.5 2015-09-07 20:25:01 Pearl Creek Farm
2015-09-05 17:00:00 89 65 75.5 2015-09-07 20:25:01 Pearl Creek Farm
2015-09-05 17:30:00 88 69 76.3 2015-09-07 20:25:01 Pearl Creek Farm
2015-09-05 18:00:00 87 72 76.7 2015-09-07 20:25:01 Pearl Creek Farm
2015-09-05 18:30:00 86 75 76.9 2015-09-07 20:25:01 Pearl Creek Farm
2015-09-05 19:00:00 85 77 77.0 2015-09-07 20:25:01 Pearl Creek Farm
2015-09-05 19:30:00 83 79 75.8 2015-09-07 20:25:01 Pearl Creek Farm
2015-09-05 20:00:00 82 81 75.4 2015-09-07 20:25:01 Pearl Creek Farm
2015-09-05 20:30:00 80 83 74.4 2015-09-07 20:25:01 Pearl Creek Farm
2015-09-05 21:00:00 79 84 73.6 2015-09-07 20:25:01 Pearl Creek Farm
2015-09-05 21:30:00 78 84 72.8 2015-09-07 20:25:01 Pearl Creek Farm
2015-09-05 22:00:00 77 86 72.3 2015-09-07 20:25:01 Pearl Creek Farm
2015-09-05 22:30:00 76 86 71.5 2015-09-07 20:25:01 Pearl Creek Farm
2015-09-05 23:00:00 75 87 70.9 2015-09-07 20:25:01 Pearl Creek Farm
2015-09-05 23:30:00 75 87 70.9 2015-09-07 20:25:01 Pearl Creek Farm

A total of 48 rows are displayed.